Pagrindinis puslapis
METAR-TAF:

METAR-TAF

Oro uostai :

Vilhelmina, Švedija

platuma: 64-34-44N, ilguma: 016-50-00E, Aukštis: 347 m

Dabartinis oras

Ataskaita buvo paskelbta 11 minutes, ne 16:50 UTC
Vėjas 8 kt iš Pietų
Temperatūra 17°C
Drėgmė 39%
Slėgis 1006 hPa
Matomumas 10 km arba daugiau

METAR: ESNV 231650Z AUTO 17008KT 9999 SCT100/// 17/03 Q1006

Laikas: 19:01 (17:01 UTC)


TAF: trūkstamas

Orai ataskaitas ir orų prognozės (METAR, TAF).

turimą stotys yra geltonos ir raudonos taškus žemėlapyje.

Perkelti pele per norėdami pamatyti stoties vardą.

Tada spustelėkite, norėdami matyti oro stebėjimo ir prognozės.

Norėdami pakeisti žemėlapį: spustelėkite ant žalios mygtukų su juodo kryžiaus žemyn,; žalią mygtuką su brūkšneliu, jei norite nutolinti; arba žalių rodyklių gretimoms žemėlapius.


METAR-TAF: